PSRAF SBSP-SBBR

Flight info

Callsign PSRAF
Flight time 1h 22m
Altitude 40000
Route GERTU UZ25 PUGOR/N0424F430 UZ25 PABIN
Aircraft C25C/M-SDE2E3FGHRWXY/LB1

Departure

Time 2026-05-06 20:52
Airport Congonhas–Deputado Freitas Nobre Airport (SBSP)

Arrival

Time 2026-05-06 22:14
Airport Presidente Juscelino Kubitschek International Airport (SBBR)
Time Latitude Longitude Altitude Speed Heading
2026-05-06 20:39 -23.63048 -46.64964 2594 ft 0 kts 181°
2026-05-06 20:49 -23.63080 -46.64968 2593 ft 10 kts 201°
2026-05-06 20:49 -23.63051 -46.65033 2593 ft 17 kts 329°
2026-05-06 20:49 -23.62924 -46.65123 2592 ft 26 kts 327°
2026-05-06 20:49 -23.62752 -46.65241 2592 ft 32 kts 328°
2026-05-06 20:50 -23.62550 -46.65380 2592 ft 36 kts 327°
2026-05-06 20:50 -23.62327 -46.65534 2589 ft 39 kts 328°
2026-05-06 20:50 -23.62145 -46.65661 2593 ft 20 kts 329°
2026-05-06 20:50 -23.62127 -46.65672 2593 ft 0 kts 329°
2026-05-06 20:51 -23.62126 -46.65673 2593 ft 2 kts 326°
2026-05-06 20:51 -23.62120 -46.65725 2592 ft 13 kts 245°
2026-05-06 20:51 -23.62148 -46.65749 2592 ft 0 kts 150°
2026-05-06 20:52 -23.62242 -46.65687 2592 ft 57 kts 148°
2026-05-06 20:52 -23.62838 -46.65278 2637 ft 143 kts 149°
2026-05-06 20:52 -23.63763 -46.64682 3411 ft 169 kts 147°
2026-05-06 20:52 -23.64929 -46.64102 4074 ft 201 kts 160°
2026-05-06 20:53 -23.66443 -46.64049 4759 ft 235 kts 183°
2026-05-06 20:53 -23.68174 -46.64189 5471 ft 262 kts 182°
2026-05-06 20:53 -23.70014 -46.64399 6545 ft 269 kts 186°
2026-05-06 20:53 -23.71924 -46.64600 7425 ft 284 kts 184°
2026-05-06 20:54 -23.74042 -46.64827 7545 ft 325 kts 188°
2026-05-06 20:54 -23.76098 -46.65675 8103 ft 320 kts 214°
2026-05-06 20:54 -23.77574 -46.67434 9335 ft 304 kts 235°
2026-05-06 20:54 -23.78351 -46.69453 10999 ft 283 kts 260°
2026-05-06 20:55 -23.78408 -46.71616 11863 ft 291 kts 283°
2026-05-06 20:55 -23.77669 -46.73700 12669 ft 298 kts 302°
2026-05-06 20:55 -23.76265 -46.75322 13520 ft 301 kts 325°
2026-05-06 20:55 -23.74467 -46.76533 14312 ft 306 kts 331°
2026-05-06 20:56 -23.72590 -46.77671 15088 ft 311 kts 333°
2026-05-06 20:56 -23.70667 -46.78793 15850 ft 316 kts 331°
2026-05-06 20:56 -23.68732 -46.79988 16611 ft 321 kts 330°
2026-05-06 20:56 -23.66779 -46.81198 17363 ft 325 kts 330°
2026-05-06 20:57 -23.64787 -46.82420 18104 ft 330 kts 330°
2026-05-06 20:57 -23.62771 -46.83651 18776 ft 335 kts 330°
2026-05-06 20:57 -23.60725 -46.84902 19431 ft 338 kts 330°
2026-05-06 20:57 -23.58666 -46.86166 20102 ft 341 kts 329°
2026-05-06 20:58 -23.56616 -46.87418 20765 ft 344 kts 329°
2026-05-06 20:58 -23.54510 -46.88710 21409 ft 347 kts 329°
2026-05-06 20:58 -23.52384 -46.90005 22072 ft 351 kts 328°
2026-05-06 20:58 -23.50242 -46.91320 22749 ft 354 kts 328°
2026-05-06 20:59 -23.48085 -46.92633 23421 ft 358 kts 328°
2026-05-06 20:59 -23.45932 -46.93954 24016 ft 361 kts 328°
2026-05-06 20:59 -23.43724 -46.95295 24537 ft 365 kts 328°
2026-05-06 20:59 -23.41490 -46.96663 25062 ft 370 kts 327°
2026-05-06 21:00 -23.39238 -46.98035 25611 ft 373 kts 327°
2026-05-06 21:00 -23.36966 -46.99425 26156 ft 377 kts 326°
2026-05-06 21:00 -23.34666 -47.00822 26688 ft 381 kts 326°
2026-05-06 21:00 -23.32345 -47.02240 27219 ft 384 kts 326°
2026-05-06 21:01 -23.29995 -47.03669 27748 ft 388 kts 326°
2026-05-06 21:01 -23.27619 -47.05119 28263 ft 392 kts 326°
2026-05-06 21:01 -23.25227 -47.06572 28764 ft 396 kts 325°
2026-05-06 21:01 -23.22816 -47.08040 29214 ft 401 kts 326°
2026-05-06 21:02 -23.20366 -47.09530 29694 ft 404 kts 325°
2026-05-06 21:02 -23.17900 -47.11029 30223 ft 408 kts 325°
2026-05-06 21:02 -23.15453 -47.12513 30748 ft 407 kts 324°
2026-05-06 21:02 -23.12979 -47.14015 31278 ft 407 kts 324°
2026-05-06 21:03 -23.10499 -47.15523 31779 ft 408 kts 324°
2026-05-06 21:03 -23.08018 -47.17026 32288 ft 408 kts 324°
2026-05-06 21:03 -23.05532 -47.18537 32788 ft 408 kts 323°
2026-05-06 21:03 -23.03055 -47.20035 33251 ft 408 kts 323°
2026-05-06 21:04 -23.00575 -47.21542 33751 ft 409 kts 323°
2026-05-06 21:04 -22.98091 -47.23044 34258 ft 409 kts 322°
2026-05-06 21:04 -22.95612 -47.24546 34723 ft 408 kts 322°
2026-05-06 21:04 -22.93165 -47.26026 35198 ft 407 kts 322°
2026-05-06 21:05 -22.90693 -47.27520 35668 ft 406 kts 322°
2026-05-06 21:05 -22.88231 -47.29012 36113 ft 404 kts 322°
2026-05-06 21:05 -22.85776 -47.30494 36545 ft 404 kts 322°
2026-05-06 21:05 -22.83325 -47.31976 36971 ft 403 kts 322°
2026-05-06 21:06 -22.80879 -47.33453 37411 ft 401 kts 321°
2026-05-06 21:06 -22.78437 -47.34927 37846 ft 400 kts 321°
2026-05-06 21:06 -22.76002 -47.36398 38294 ft 399 kts 321°
2026-05-06 21:06 -22.73610 -47.37839 38740 ft 398 kts 321°
2026-05-06 21:07 -22.71194 -47.39297 39118 ft 396 kts 321°
2026-05-06 21:07 -22.68792 -47.40744 39512 ft 393 kts 321°
2026-05-06 21:07 -22.66405 -47.42181 39669 ft 392 kts 321°
2026-05-06 21:07 -22.64022 -47.43621 39770 ft 393 kts 321°
2026-05-06 21:08 -22.61636 -47.45055 39904 ft 392 kts 321°
2026-05-06 21:08 -22.59249 -47.46493 40028 ft 392 kts 321°
2026-05-06 21:08 -22.56863 -47.47927 40050 ft 395 kts 321°
2026-05-06 21:09 -22.52024 -47.50840 40088 ft 400 kts 321°
2026-05-06 21:09 -22.47118 -47.53786 40096 ft 405 kts 321°
2026-05-06 21:10 -22.41849 -47.56243 40098 ft 424 kts 336°
2026-05-06 21:10 -22.35956 -47.57426 40111 ft 434 kts 344°
2026-05-06 21:11 -22.29966 -47.58442 40111 ft 436 kts 344°
2026-05-06 21:11 -22.23988 -47.59441 40106 ft 438 kts 344°
2026-05-06 21:12 -22.17954 -47.60452 40114 ft 439 kts 344°
2026-05-06 21:12 -22.11896 -47.61469 40125 ft 441 kts 344°
2026-05-06 21:13 -22.05824 -47.62485 40129 ft 442 kts 344°
2026-05-06 21:13 -21.99730 -47.63503 40122 ft 444 kts 345°
2026-05-06 21:14 -21.93654 -47.64518 40115 ft 444 kts 344°
2026-05-06 21:14 -21.87543 -47.65538 40114 ft 444 kts 344°
2026-05-06 21:15 -21.81418 -47.66561 40110 ft 445 kts 344°
2026-05-06 21:15 -21.76335 -47.67408 40107 ft 445 kts 344°
2026-05-06 21:16 -21.70208 -47.68428 40100 ft 445 kts 344°
2026-05-06 21:16 -21.64082 -47.69446 40100 ft 445 kts 344°
2026-05-06 21:17 -21.57955 -47.70462 40102 ft 445 kts 345°
2026-05-06 21:17 -21.51813 -47.71464 40096 ft 446 kts 345°
2026-05-06 21:18 -21.45680 -47.72472 40098 ft 446 kts 345°
2026-05-06 21:18 -21.39578 -47.73468 40099 ft 446 kts 345°
2026-05-06 21:19 -21.33432 -47.74472 40101 ft 447 kts 345°
2026-05-06 21:19 -21.27277 -47.75477 40095 ft 447 kts 345°
2026-05-06 21:20 -21.21130 -47.76481 40097 ft 447 kts 345°
2026-05-06 21:20 -21.14984 -47.77484 40098 ft 447 kts 345°
2026-05-06 21:21 -21.08807 -47.78338 40081 ft 448 kts 346°
2026-05-06 21:21 -21.02634 -47.79188 40084 ft 447 kts 346°
2026-05-06 21:22 -20.96492 -47.80020 40088 ft 447 kts 346°
2026-05-06 21:22 -20.90324 -47.80862 40076 ft 447 kts 346°
2026-05-06 21:23 -20.84159 -47.81701 40079 ft 446 kts 346°
2026-05-06 21:23 -20.78002 -47.82537 40076 ft 446 kts 346°
2026-05-06 21:24 -20.71841 -47.83373 40079 ft 446 kts 347°
2026-05-06 21:24 -20.65691 -47.84207 40079 ft 445 kts 346°
2026-05-06 21:25 -20.59536 -47.85042 40073 ft 445 kts 346°
2026-05-06 21:25 -20.53396 -47.85873 40076 ft 444 kts 346°
2026-05-06 21:26 -20.47267 -47.86704 40073 ft 444 kts 347°
2026-05-06 21:26 -20.41179 -47.87526 40074 ft 444 kts 347°
2026-05-06 21:27 -20.35035 -47.88355 40068 ft 444 kts 347°
2026-05-06 21:27 -20.28905 -47.89188 40063 ft 444 kts 347°
2026-05-06 21:28 -20.22769 -47.90020 40067 ft 443 kts 347°
2026-05-06 21:28 -20.16683 -47.90846 40062 ft 443 kts 347°
2026-05-06 21:29 -20.10575 -47.91674 40063 ft 443 kts 347°
2026-05-06 21:29 -20.04452 -47.92500 40088 ft 443 kts 347°
2026-05-06 21:30 -19.98332 -47.93328 40109 ft 443 kts 347°
2026-05-06 21:30 -19.92210 -47.94156 40127 ft 443 kts 347°
2026-05-06 21:31 -19.86089 -47.94983 40152 ft 443 kts 347°
2026-05-06 21:31 -19.80003 -47.95802 40153 ft 443 kts 347°
2026-05-06 21:32 -19.73879 -47.96628 40155 ft 443 kts 347°
2026-05-06 21:32 -19.64705 -47.97864 40085 ft 443 kts 347°
2026-05-06 21:33 -19.58613 -47.98683 40086 ft 443 kts 347°
2026-05-06 21:33 -19.52492 -47.99504 40083 ft 443 kts 347°
2026-05-06 21:34 -19.46371 -48.00326 40088 ft 442 kts 347°
2026-05-06 21:34 -19.40293 -48.01143 40085 ft 442 kts 347°
2026-05-06 21:35 -19.34183 -48.01963 40087 ft 442 kts 347°
2026-05-06 21:35 -19.28077 -48.02783 40088 ft 441 kts 347°
2026-05-06 21:36 -19.21995 -48.03653 40086 ft 441 kts 346°
2026-05-06 21:36 -19.15918 -48.04504 40087 ft 440 kts 346°
2026-05-06 21:37 -19.09881 -48.05355 40087 ft 439 kts 346°
2026-05-06 21:37 -19.03820 -48.06209 40088 ft 439 kts 347°
2026-05-06 21:38 -18.97758 -48.07058 40149 ft 439 kts 347°
2026-05-06 21:38 -18.91704 -48.07908 40155 ft 439 kts 347°
2026-05-06 21:39 -18.85618 -48.08574 40161 ft 439 kts 349°
2026-05-06 21:39 -18.79529 -48.09217 40153 ft 440 kts 349°
2026-05-06 21:40 -18.73442 -48.09844 40141 ft 440 kts 349°
2026-05-06 21:40 -18.67349 -48.10478 40123 ft 439 kts 349°
2026-05-06 21:41 -18.61264 -48.11109 40103 ft 440 kts 349°
2026-05-06 21:41 -18.55213 -48.11736 40077 ft 440 kts 349°
2026-05-06 21:42 -18.49114 -48.12367 40075 ft 439 kts 349°
2026-05-06 21:42 -18.43025 -48.12996 40072 ft 439 kts 349°
2026-05-06 21:43 -18.36955 -48.13627 40076 ft 438 kts 349°
2026-05-06 21:43 -18.30881 -48.14257 40073 ft 438 kts 349°
2026-05-06 21:44 -18.24842 -48.14882 40075 ft 438 kts 349°
2026-05-06 21:44 -18.18775 -48.15509 40075 ft 438 kts 349°
2026-05-06 21:45 -18.12709 -48.16133 40068 ft 438 kts 349°
2026-05-06 21:45 -18.06649 -48.16757 40068 ft 437 kts 349°
2026-05-06 21:46 -18.00583 -48.17380 40071 ft 437 kts 349°
2026-05-06 21:46 -17.94536 -48.18004 40071 ft 437 kts 349°
2026-05-06 21:47 -17.88516 -48.18623 40076 ft 436 kts 349°
2026-05-06 21:47 -17.82512 -48.19234 39855 ft 435 kts 349°
2026-05-06 21:48 -17.79454 -48.19478 39310 ft 450 kts 354°
2026-05-06 21:48 -17.76273 -48.19271 38698 ft 465 kts
2026-05-06 21:48 -17.73015 -48.18882 38039 ft 474 kts
2026-05-06 21:48 -17.69738 -48.18488 37414 ft 474 kts
2026-05-06 21:49 -17.66449 -48.18141 36786 ft 473 kts
2026-05-06 21:49 -17.63163 -48.17796 36160 ft 474 kts
2026-05-06 21:49 -17.59888 -48.17432 35542 ft 474 kts
2026-05-06 21:49 -17.56597 -48.17062 34910 ft 475 kts
2026-05-06 21:50 -17.53308 -48.16699 34291 ft 476 kts
2026-05-06 21:50 -17.50049 -48.16348 33631 ft 477 kts
2026-05-06 21:50 -17.46746 -48.15985 32996 ft 475 kts
2026-05-06 21:50 -17.43464 -48.15619 32374 ft 474 kts
2026-05-06 21:51 -17.40183 -48.15264 31757 ft 473 kts
2026-05-06 21:51 -17.36919 -48.14904 31125 ft 472 kts
2026-05-06 21:51 -17.33646 -48.14548 30502 ft 472 kts
2026-05-06 21:51 -17.30384 -48.14187 29841 ft 471 kts
2026-05-06 21:52 -17.27126 -48.13833 29215 ft 467 kts
2026-05-06 21:52 -17.23908 -48.13478 28601 ft 464 kts
2026-05-06 21:52 -17.20697 -48.13130 27991 ft 461 kts
2026-05-06 21:52 -17.17558 -48.12783 27393 ft 458 kts
2026-05-06 21:53 -17.14397 -48.12441 26789 ft 455 kts
2026-05-06 21:53 -17.11260 -48.12095 26189 ft 452 kts
2026-05-06 21:53 -17.08133 -48.11755 25592 ft 449 kts
2026-05-06 21:53 -17.05037 -48.11414 25001 ft 446 kts
2026-05-06 21:54 -17.01958 -48.11081 24416 ft 443 kts
2026-05-06 21:54 -16.98894 -48.10743 23832 ft 440 kts
2026-05-06 21:54 -16.95867 -48.10416 23205 ft 436 kts
2026-05-06 21:54 -16.92858 -48.10082 22625 ft 431 kts
2026-05-06 21:55 -16.89889 -48.09766 22052 ft 425 kts
2026-05-06 21:55 -16.86959 -48.09442 21494 ft 421 kts
2026-05-06 21:55 -16.84060 -48.09127 20938 ft 416 kts
2026-05-06 21:55 -16.81236 -48.08815 20401 ft 412 kts
2026-05-06 21:56 -16.78395 -48.08525 19863 ft 408 kts
2026-05-06 21:56 -16.75582 -48.08769 19318 ft 405 kts 350°
2026-05-06 21:56 -16.72843 -48.09408 18791 ft 401 kts 347°
2026-05-06 21:56 -16.70182 -48.10115 18257 ft 389 kts 347°
2026-05-06 21:57 -16.67576 -48.10706 17722 ft 377 kts 349°
2026-05-06 21:57 -16.65045 -48.11242 17231 ft 366 kts 349°
2026-05-06 21:57 -16.62579 -48.11795 16752 ft 359 kts 348°
2026-05-06 21:57 -16.60163 -48.12352 16280 ft 352 kts 348°
2026-05-06 21:58 -16.57800 -48.12894 15822 ft 343 kts 349°
2026-05-06 21:58 -16.55496 -48.13408 15370 ft 333 kts 349°
2026-05-06 21:58 -16.53254 -48.13916 14939 ft 325 kts 349°
2026-05-06 21:58 -16.51059 -48.14410 14513 ft 319 kts 349°
2026-05-06 21:59 -16.48908 -48.14900 14094 ft 314 kts 349°
2026-05-06 21:59 -16.46808 -48.15369 13664 ft 310 kts 349°
2026-05-06 21:59 -16.44715 -48.15847 13248 ft 305 kts 350°
2026-05-06 21:59 -16.42651 -48.16310 12845 ft 301 kts 349°
2026-05-06 22:00 -16.40619 -48.16770 12452 ft 298 kts 350°
2026-05-06 22:00 -16.38606 -48.17224 12062 ft 295 kts 349°
2026-05-06 22:00 -16.36610 -48.17673 11671 ft 292 kts 351°
2026-05-06 22:00 -16.34625 -48.18123 11293 ft 291 kts 350°
2026-05-06 22:01 -16.32653 -48.18566 10908 ft 290 kts 351°
2026-05-06 22:01 -16.30674 -48.19013 10523 ft 289 kts 351°
2026-05-06 22:01 -16.28736 -48.19450 10185 ft 287 kts 352°
2026-05-06 22:01 -16.26826 -48.19881 10118 ft 275 kts 351°
2026-05-06 22:02 -16.24985 -48.20296 10102 ft 264 kts 352°
2026-05-06 22:02 -16.23222 -48.20691 10091 ft 255 kts 351°
2026-05-06 22:02 -16.22081 -48.20947 10097 ft 252 kts 352°
2026-05-06 22:02 -16.19777 -48.21457 10093 ft 253 kts 352°
2026-05-06 22:03 -16.18638 -48.21711 10090 ft 253 kts 352°
2026-05-06 22:03 -16.16917 -48.22104 10091 ft 254 kts 352°
2026-05-06 22:03 -16.15181 -48.22373 10089 ft 249 kts
2026-05-06 22:03 -16.13516 -48.21968 10093 ft 244 kts 18°
2026-05-06 22:04 -16.11876 -48.21592 10092 ft 238 kts 17°
2026-05-06 22:04 -16.10296 -48.21175 10093 ft 232 kts 18°
2026-05-06 22:04 -16.08736 -48.20772 10095 ft 229 kts 18°
2026-05-06 22:04 -16.07222 -48.20380 10113 ft 222 kts 17°
2026-05-06 22:05 -16.05752 -48.20010 10022 ft 211 kts 18°
2026-05-06 22:05 -16.04348 -48.19646 9779 ft 211 kts 17°
2026-05-06 22:05 -16.02919 -48.19277 9511 ft 212 kts 18°
2026-05-06 22:05 -16.01478 -48.18911 9233 ft 214 kts 18°
2026-05-06 22:06 -16.00021 -48.18534 8949 ft 215 kts 18°
2026-05-06 22:06 -15.98558 -48.18181 8665 ft 216 kts 14°
2026-05-06 22:06 -15.97079 -48.17880 8383 ft 217 kts 16°
2026-05-06 22:06 -15.95607 -48.17530 8099 ft 218 kts 16°
2026-05-06 22:07 -15.94145 -48.17195 7818 ft 218 kts 16°
2026-05-06 22:07 -15.92660 -48.16866 7533 ft 218 kts 15°
2026-05-06 22:07 -15.91156 -48.16531 7243 ft 218 kts 15°
2026-05-06 22:07 -15.89698 -48.16210 6961 ft 213 kts 17°
2026-05-06 22:08 -15.88463 -48.15534 6578 ft 196 kts 50°
2026-05-06 22:08 -15.87824 -48.14422 6482 ft 164 kts 78°
2026-05-06 22:08 -15.87710 -48.13296 6477 ft 154 kts 83°
2026-05-06 22:08 -15.87599 -48.12189 6487 ft 159 kts 86°
2026-05-06 22:09 -15.87517 -48.11008 6490 ft 165 kts 84°
2026-05-06 22:09 -15.87445 -48.09819 6496 ft 164 kts 86°
2026-05-06 22:09 -15.87361 -48.08639 6389 ft 168 kts 85°
2026-05-06 22:09 -15.87299 -48.07504 6194 ft 137 kts 85°
2026-05-06 22:10 -15.87240 -48.06587 6019 ft 119 kts 85°
2026-05-06 22:10 -15.87188 -48.05744 5873 ft 118 kts 86°
2026-05-06 22:10 -15.87129 -48.04898 5727 ft 117 kts 85°
2026-05-06 22:10 -15.87079 -48.04058 5582 ft 117 kts 84°
2026-05-06 22:11 -15.87025 -48.03203 5438 ft 120 kts 87°
2026-05-06 22:11 -15.86967 -48.02321 5287 ft 123 kts 85°
2026-05-06 22:11 -15.86916 -48.01430 5138 ft 124 kts 85°
2026-05-06 22:11 -15.86850 -48.00543 4981 ft 125 kts 86°
2026-05-06 22:12 -15.86800 -47.99634 4812 ft 124 kts 85°
2026-05-06 22:12 -15.86746 -47.98754 4650 ft 121 kts 86°
2026-05-06 22:12 -15.86688 -47.97899 4497 ft 119 kts 88°
2026-05-06 22:12 -15.86636 -47.97038 4340 ft 120 kts 87°
2026-05-06 22:13 -15.86575 -47.96167 4183 ft 122 kts 87°
2026-05-06 22:13 -15.86521 -47.95284 4015 ft 123 kts 86°
2026-05-06 22:13 -15.86463 -47.94400 3842 ft 120 kts 89°
2026-05-06 22:13 -15.86407 -47.93553 3671 ft 116 kts 89°
2026-05-06 22:14 -15.86355 -47.92724 3511 ft 110 kts 89°
2026-05-06 22:14 -15.86318 -47.92018 3462 ft 85 kts 86°
2026-05-06 22:14 -15.86275 -47.91538 3458 ft 44 kts 87°
2026-05-06 22:14 -15.86274 -47.91395 3457 ft 14 kts 112°
2026-05-06 22:15 -15.86346 -47.91397 3458 ft 12 kts 227°
2026-05-06 22:15 -15.86390 -47.91463 3457 ft 0 kts 236°
2026-05-06 22:15 -15.86396 -47.91471 3457 ft 5 kts 236°
2026-05-06 22:16 -15.86439 -47.91537 3457 ft 17 kts 235°
2026-05-06 22:16 -15.86482 -47.91675 3460 ft 25 kts 269°
2026-05-06 22:16 -15.86497 -47.91885 3462 ft 33 kts 267°
2026-05-06 22:16 -15.86513 -47.92152 3461 ft 39 kts 266°
2026-05-06 22:17 -15.86530 -47.92366 3467 ft 19 kts 251°
2026-05-06 22:17 -15.86643 -47.92449 3469 ft 22 kts 207°
2026-05-06 22:17 -15.86722 -47.92504 3473 ft 13 kts 244°
2026-05-06 22:17 -15.86731 -47.92596 3471 ft 10 kts 268°
2026-05-06 22:18 -15.86732 -47.92612 3471 ft 0 kts 268°